Hourly Weather Roundup
Issued by NWS Central Illinois

Home | Current Version | Previous Version | Text Only | Print | Product List | Glossary On
Versions: 1 2 3 4 5 6 7 8 9 10 11 12 13 14 15 16 17 18 19 20 21 22 23 24 25 26 27 28 29 30 31 32 33 34 35 36 37 38 39 40 41 42 43 44 45 46 47 48 49 50
000
NZUS43 KILX 291610
HWRILX

AREA WEATHER ROUNDUP
NATIONAL WEATHER SERVICE, LINCOLN IL
1000 AM CST MON DEC 29 2014


CITY           SKY/WX    TMP DP  RH WIND       PRES   REMARKS
BLOOMINGTON    SUNNY     30  25  82 NE6       30.35R WCI  24
CHAMPAIGN      SUNNY     32  22  66 NE7       30.34R WCI  26
DECATUR        SUNNY     31  25  78 NE8       30.35R WCI  23
FLORA          PTSUNNY   27  26  94 NE5       30.34R WCI  22
GALESBURG      MOSUNNY   29  23  77 NE8       30.37R WCI  21
JACKSONVILLE   SUNNY     32  28  85 NE6       30.36R WCI  26
LACON          SUNNY     28  22  77 NE5       30.38R WCI  23
LAWRENCEVILLE  PTSUNNY   30  27  88 NE8       30.33R FOG     WCI  22
LITCHFIELD     SUNNY     29  23  77 NE8       30.33R WCI  22
$$


CITY           SKY/WX    TMP DP  RH WIND       PRES   REMARKS
LINCOLN        SUNNY     31  26  80 NE3       30.37R
MACOMB         SUNNY     29  25  87 NE6       30.38R WCI  23
MATTOON        SUNNY     30  24  78 E9        30.32R WCI  22
MT CARMEL AP   CLOUDY    32  28  86 NE9       30.33R WCI  24
OLNEY-NOBLE AP PTSUNNY   28  27  93 NE7       30.34R WCI  21
PARIS          SUNNY     30  26  84 NE5       30.35R WCI  25
PEORIA         SUNNY     32  22  66 NE5       30.37R WCI  27
PONTIAC        SUNNY     31  26  83 NE8       30.37R WCI  24
RANTOUL        SUNNY     32  24  72 NE7       30.34R WCI  26
ROBINSON       MOSUNNY   26  25  96 N5        30.36R FOG     WCI  20
SPRINGFIELD    SUNNY     32  25  75 E7        30.36R WCI  26
TAYLORVILLE    SUNNY     30  25  80 NE7       30.35R WCI  23
$$

...REGIONAL REPORTS...


CITY           SKY/WX    TMP DP  RH WIND       PRES   REMARKS
CHICAGO O`HARE PTSUNNY   28  20  71 N14       30.37R WCI  17
KANKAKEE       PTSUNNY   31  26  81 N3        30.36R
MOLINE         PTSUNNY   28  22  78 N10       30.40R WCI  19
MOUNT VERNON   PTSUNNY   30  25  80 NE10      30.32S WCI  21
PITTSFIELD     SUNNY     32  28  87 NE5       30.36R WCI  27
QUINCY         SUNNY     31  25  78 NE6       30.35R WCI  25
ROCKFORD       MOSUNNY   24  16  71 NE9       30.42R WCI  14
$$


CITY           SKY/WX    TMP DP  RH WIND       PRES   REMARKS
BURLINGTON     SUNNY     30  22  72 NE10      30.38R WCI  21
CEDAR RAPIDS   LGT SNOW  24  21  88 NE12      30.40R WCI  13
DES MOINES     LGT SNOW  25  19  78 NE15      30.41R WCI  13
KIRKSVILLE     SUNNY     32  25  75 E6        30.34R WCI  26
OTTUMWA        CLOUDY    29  22  75 NE12      30.38R WCI  19
ST LOUIS       MOSUNNY   32  25  75 NE7       30.34R WCI  26
$$


CITY           SKY/WX    TMP DP  RH WIND       PRES   REMARKS
TERRE HAUTE    SUNNY     30  25  81 E6        30.34R WCI  24
EVANSVILLE     PTSUNNY   35  26  69 NE8       30.31S WCI  29
INDIANAPOLIS   MOSUNNY   29  23  78 NE9       30.32R WCI  20
LAFAYETTE      SUNNY     29  25  85 CALM      30.35R
MADISON        MOSUNNY   20   9  62 N8        30.42R WCI  10
MILWAUKEE      MOSUNNY   22   9  57 N7        30.41R WCI  13
$$




USA.gov is the U.S. government's official web portal to all federal, state and local government web resources and services.